Blythe, CA

10:12 AM PDT on June 26, 2017 (GMT -0700)
Blythe

Weather History for KBLH - August, 2013

Change the Weather History Date:

Saturday, August 31, 2013

  Actual Average Record
Temperature  
Mean Temperature 92 °F -  
Max Temperature 102 °F 103 °F 113 °F (1995)
Min Temperature 82 °F 77 °F 63 °F (1992)
Cooling Degree Days 27    
Growing Degree Days 42 (Base 50)    
Moisture  
Dew Point 71 °F    
Average Humidity 52    
Maximum Humidity 79    
Minimum Humidity 30    
Precipitation  
Precipitation 0.00 in - - ()
Sea Level Pressure  
Sea Level Pressure 29.81 in    
Wind  
Wind Speed 8 mph (South)    
Max Wind Speed 24 mph    
Max Gust Speed 31 mph    
Visibility 10 miles    
Events Rain , Thunderstorm    
Averages and records for this station are not official NWS values.
T = Trace of Precipitation, MM = Missing Value Source: NWS Daily Summary

Daily Weather History Graph

Daily Weather History Graph

Search for Another Location

Airport or City:

Trip Planner

Search our weather history database for the weather conditions in past years. The results will help you decide how hot, cold, wet, or windy it might be!

Date:

Astronomy

Aug. 31, 2013 Rise Set
Actual Time 6:12 AM PDT 7:05 PM PDT
Civil Twilight 5:46 AM PDT 7:30 PM PDT
Nautical Twilight 5:16 AM PDT 8:00 PM PDT
Astronomical Twilight 4:45 AM PDT 8:31 PM PDT
Moon 1:52 AM PDT (8/31) 3:59 PM PDT (8/31)
Length of Visible Light 13h 43m
Length of Day
12h 52m
Waning Crescent, 20% of the Moon is Illuminated
Aug 31
Waning Crescent
Sep 5
New
Sep 12
First Quarter
Sep 19
Full
Sep 26
Last Quarter

Hourly Weather History & Observations

Time (PDT) Temp. Heat Index Dew Point Humidity Pressure Visibility Wind Dir Wind Speed Gust Speed Precip Events Conditions
12:52 AM 87.1 °F 94.5 °F 73.0 °F 63% 29.88 in 10.0 mi South 9.2 mph - N/A   Clear
1:52 AM 86.0 °F 93.0 °F 73.0 °F 65% 29.86 in 10.0 mi South 5.8 mph - 0.00 in   Clear
2:52 AM 86.0 °F 93.0 °F 73.0 °F 65% 29.86 in 10.0 mi South 4.6 mph - N/A   Clear
3:52 AM 84.9 °F 91.4 °F 73.0 °F 67% 29.84 in 10.0 mi SSE 3.5 mph - N/A   Clear
4:52 AM 84.0 °F 91.2 °F 73.9 °F 72% 29.84 in 10.0 mi ESE 3.5 mph - N/A   Clear
5:52 AM 84.9 °F 92.1 °F 73.9 °F 69% 29.86 in 10.0 mi SE 4.6 mph - N/A   Clear
6:52 AM 84.0 °F 91.9 °F 75.0 °F 74% 29.88 in 10.0 mi Calm Calm - N/A   Clear
7:52 AM 84.9 °F 93.3 °F 75.0 °F 72% 29.88 in 10.0 mi Calm Calm - N/A   Clear
8:52 AM 84.9 °F 94.1 °F 75.9 °F 74% 29.89 in 10.0 mi ESE 3.5 mph - N/A   Clear
9:52 AM 87.1 °F 96.3 °F 75.0 °F 67% 29.90 in 10.0 mi Calm Calm - 0.00 in   Clear
10:52 AM 91.0 °F 99.3 °F 73.0 °F 55% 29.89 in 10.0 mi SSE 5.8 mph - N/A   Clear
11:52 AM 97.0 °F 104.8 °F 71.1 °F 43% 29.87 in 10.0 mi SSE 10.4 mph - N/A   Clear
12:52 PM 98.1 °F 104.4 °F 69.1 °F 39% 29.83 in 10.0 mi South 11.5 mph - N/A   Clear
1:52 PM 102.0 °F 105.9 °F 64.9 °F 30% 29.80 in 10.0 mi South 16.1 mph 19.6 mph N/A   Clear
2:52 PM 100.9 °F 104.6 °F 64.9 °F 31% 29.78 in 10.0 mi South 11.5 mph - N/A   Partly Cloudy
3:52 PM 102.0 °F 106.6 °F 66.0 °F 31% 29.75 in 10.0 mi South 9.2 mph - N/A   Clear
4:52 PM 100.9 °F 106.0 °F 66.9 °F 33% 29.73 in 10.0 mi SSE 13.8 mph - N/A   Clear
5:47 PM 100.4 °F 106.3 °F 68.0 °F 35% 29.75 in 10.0 mi SSE 12.7 mph - N/A Thunderstorm Clear
5:52 PM 100.0 °F 105.6 °F 68.0 °F 35% 29.73 in 10.0 mi SSE 10.4 mph - N/A Thunderstorm Clear
6:01 PM 100.4 °F 106.3 °F 68.0 °F 35% 29.74 in 10.0 mi SE 10.4 mph - N/A Thunderstorm Clear
6:38 PM 98.6 °F 104.1 °F 68.0 °F 37% 29.76 in 10.0 mi NW 18.4 mph 23.0 mph N/A Thunderstorm Thunderstorm
6:52 PM 96.1 °F 101.0 °F 68.0 °F 40% 29.74 in 10.0 mi NW 18.4 mph 23.0 mph N/A Thunderstorm Thunderstorm
7:08 PM 96.8 °F 99.0 °F 64.4 °F 34% 29.77 in 10.0 mi NW 11.5 mph - N/A   Scattered Clouds
7:52 PM 98.1 °F 104.4 °F 69.1 °F 39% 29.76 in 10.0 mi SSW 3.5 mph - 0.00 in   Mostly Cloudy
8:50 PM 91.4 °F 96.8 °F 69.8 °F 49% 29.81 in 10.0 mi WSW 24.2 mph 27.6 mph 0.00 in Thunderstorm Mostly Cloudy
8:52 PM 91.9 °F 96.9 °F 69.1 °F 47% 29.79 in 10.0 mi WSW 24.2 mph 31.1 mph 0.00 in Thunderstorm Mostly Cloudy
9:40 PM 89.6 °F 94.7 °F 69.8 °F 52% 29.82 in 10.0 mi SW 12.7 mph - N/A   Clear
9:52 PM 90.0 °F 95.4 °F 70.0 °F 52% 29.80 in 10.0 mi SW 11.5 mph - N/A   Clear
10:52 PM 82.9 °F 90.2 °F 75.0 °F 77% 29.81 in 10.0 mi ESE 9.2 mph - 0.00 in Rain Light Rain
11:52 PM 82.9 °F 90.8 °F 75.9 °F 79% 29.78 in 10.0 mi ESE 6.9 mph - 0.00 in   Partly Cloudy